Weather History for KSUW - April, 2013

Change the Weather History Date:

Monday, April 1, 2013

  Actual Average Record
Temperature  
Mean Temperature 24 °F -  
Max Temperature 33 °F 41 °F 64 °F (1955)
Min Temperature 16 °F 24 °F 4 °F (1975)
Degree Days  
Heating Degree Days 40    
Moisture  
Dew Point 9 °F    
Average Humidity 52    
Maximum Humidity 70    
Minimum Humidity 36    
Precipitation  
Precipitation 0.00 in - - ()
Sea Level Pressure  
Sea Level Pressure 30.14 in    
Wind  
Wind Speed 12 mph (NW)    
Max Wind Speed 22 mph    
Max Gust Speed 29 mph    
Visibility 10 miles    
Events      
Averages and records for this station are not official NWS values.
T = Trace of Precipitation, MM = Missing Value Source: NWS Daily Summary

Daily Weather History Graph

Daily Weather History Graph

Search for Another Location

Airport or City:

Trip Planner

Search our weather history database for the weather conditions in past years. The results will help you decide how hot, cold, wet, or windy it might be!

Date:

Astronomy

Apr. 01, 2013 Rise Set
Actual Time 6:47 AM CDT 7:37 PM CDT
Civil Twilight 6:16 AM CDT 8:08 PM CDT
Nautical Twilight 5:40 AM CDT 8:45 PM CDT
Astronomical Twilight 5:01 AM CDT 9:23 PM CDT
Moon 1:02 AM CDT (4/1) 10:18 AM CDT (4/1)
Length of Visible Light 13h 51m
Length of Day
12h 50m
Waning Gibbous, 67% of the Moon is Illuminated
Apr 1
Waning Gibbous
Apr 2
Last Quarter
Apr 10
New
Apr 18
First Quarter
Apr 25
Full

Hourly Weather History & Observations

Time (CDT) Temp. Windchill Dew Point Humidity Pressure Visibility Wind Dir Wind Speed Gust Speed Precip Events Conditions
12:15 AM 24.1 °F 14.4 °F 7.5 °F 49% 30.04 in 10.0 mi NNW 9.2 mph - N/A   Scattered Clouds
12:35 AM 23.7 °F 14.0 °F 7.2 °F 49% 30.05 in 10.0 mi NNW 9.2 mph - N/A   Scattered Clouds
12:55 AM 22.8 °F 13.6 °F 7.7 °F 52% 30.05 in 10.0 mi NW 8.1 mph - N/A   Scattered Clouds
1:15 AM 23.9 °F 15.0 °F 8.8 °F 53% 30.06 in 10.0 mi NW 8.1 mph - N/A   Mostly Cloudy
1:35 AM 23.5 °F 15.4 °F 10.6 °F 58% 30.06 in 10.0 mi NNW 6.9 mph - N/A   Overcast
1:55 AM 24.3 °F 15.4 °F 11.8 °F 59% 30.06 in 10.0 mi NW 8.1 mph - N/A   Overcast
2:15 AM 24.6 °F 11.7 °F 11.7 °F 58% 30.07 in 10.0 mi NW 16.1 mph 21.9 mph N/A   Overcast
2:35 AM 23.9 °F 12.9 °F 11.7 °F 60% 30.07 in 10.0 mi WNW 11.5 mph - N/A   Overcast
2:55 AM 23.4 °F 10.1 °F 10.8 °F 59% 30.07 in 10.0 mi WNW 16.1 mph - N/A   Overcast
3:15 AM 22.8 °F 9.9 °F 10.4 °F 59% 30.08 in 10.0 mi NW 15.0 mph - N/A   Overcast
3:35 AM 21.6 °F 8.2 °F 10.0 °F 61% 30.08 in 10.0 mi NW 15.0 mph - N/A   Overcast
3:55 AM 21.0 °F 8.6 °F 9.5 °F 61% 30.09 in 10.0 mi WNW 12.7 mph - N/A   Scattered Clouds
4:15 AM 20.1 °F 7.5 °F 9.5 °F 63% 30.10 in 10.0 mi WNW 12.7 mph - N/A   Scattered Clouds
4:35 AM 19.4 °F 6.0 °F 9.1 °F 64% 30.11 in 10.0 mi NW 13.8 mph 18.4 mph N/A   Scattered Clouds
4:55 AM 18.5 °F 6.1 °F 8.6 °F 65% 30.11 in 10.0 mi NW 11.5 mph - N/A   Clear
5:15 AM 18.1 °F 6.3 °F 8.6 °F 66% 30.12 in 10.0 mi NW 10.4 mph - N/A   Clear
5:35 AM 17.6 °F 3.7 °F 8.8 °F 68% 30.12 in 10.0 mi NW 13.8 mph - N/A   Clear
5:55 AM 17.4 °F 3.5 °F 8.6 °F 68% 30.13 in 10.0 mi NW 13.8 mph - N/A   Clear
6:15 AM 16.9 °F 4.1 °F 8.2 °F 69% 30.14 in 10.0 mi NW 11.5 mph - N/A   Clear
6:35 AM 16.3 °F 4.1 °F 8.1 °F 70% 30.14 in 10.0 mi WNW 10.4 mph - N/A   Clear
6:55 AM 16.2 °F 4.7 °F 7.7 °F 69% 30.15 in 10.0 mi NW 9.2 mph - N/A   Clear
7:15 AM 16.3 °F 3.4 °F 7.9 °F 69% 30.16 in 10.0 mi WNW 11.5 mph - N/A   Clear
7:35 AM 16.7 °F 3.8 °F 7.9 °F 68% 30.17 in 10.0 mi NW 11.5 mph - N/A   Clear
7:55 AM 16.9 °F 2.8 °F 7.7 °F 67% 30.17 in 10.0 mi NW 13.8 mph 20.7 mph N/A   Clear
8:15 AM 17.6 °F 3.7 °F 7.7 °F 65% 30.18 in 10.0 mi NW 13.8 mph - N/A   Clear
8:35 AM 18.5 °F 5.5 °F 8.4 °F 65% 30.18 in 10.0 mi NW 12.7 mph - N/A   Clear
9:15 AM 19.8 °F 6.5 °F 8.2 °F 61% 30.19 in 10.0 mi NW 13.8 mph - N/A   Clear
9:35 AM 21.0 °F 8.6 °F 8.8 °F 59% 30.19 in 10.0 mi NW 12.7 mph - N/A   Clear
9:55 AM 21.4 °F 8.0 °F 8.6 °F 58% 30.19 in 10.0 mi NNW 15.0 mph 18.4 mph N/A   Clear
10:15 AM 22.3 °F 10.2 °F 9.0 °F 57% 30.19 in 10.0 mi WNW 12.7 mph - N/A   Clear
10:35 AM 23.4 °F 9.6 °F 9.0 °F 54% 30.19 in 10.0 mi NW 17.3 mph 20.7 mph N/A   Clear
10:55 AM 24.3 °F 10.8 °F 9.5 °F 53% 30.19 in 10.0 mi WNW 17.3 mph - N/A   Clear
11:15 AM 25.0 °F 12.6 °F 9.1 °F 51% 30.19 in 10.0 mi NW 15.0 mph - N/A   Clear
11:35 AM 25.5 °F 13.3 °F 9.5 °F 51% 30.19 in 10.0 mi NW 15.0 mph - N/A   Clear
11:55 AM 26.4 °F 14.0 °F 9.9 °F 50% 30.19 in 10.0 mi WNW 16.1 mph - N/A   Clear
12:15 PM 27.3 °F 16.1 °F 9.5 °F 47% 30.19 in 10.0 mi NNW 13.8 mph 18.4 mph N/A   Clear
12:35 PM 27.9 °F 16.8 °F 9.0 °F 45% 30.19 in 10.0 mi NW 13.8 mph 20.7 mph N/A   Clear
12:55 PM 28.4 °F 16.2 °F 9.0 °F 44% 30.18 in 10.0 mi WNW 17.3 mph 24.2 mph N/A   Clear
1:15 PM 29.5 °F 17.2 °F 9.9 °F 44% 30.18 in 10.0 mi NNW 18.4 mph 23.0 mph N/A   Clear
1:35 PM 29.7 °F 18.6 °F 9.1 °F 42% 30.17 in 10.0 mi NW 15.0 mph 25.3 mph N/A   Clear
1:55 PM 30.6 °F 18.2 °F 9.9 °F 42% 30.16 in 10.0 mi NW 19.6 mph 23.0 mph N/A   Clear
2:15 PM 30.6 °F 18.2 °F 9.1 °F 41% 30.16 in 10.0 mi NNW 19.6 mph 24.2 mph N/A   Clear
2:35 PM 31.3 °F 18.5 °F 9.3 °F 40% 30.16 in 10.0 mi WNW 21.9 mph 27.6 mph N/A   Clear
2:55 PM 32.0 °F 20.8 °F 9.1 °F 38% 30.15 in 10.0 mi NW 17.3 mph 26.5 mph N/A   Clear
3:15 PM 32.0 °F 21.2 °F 9.0 °F 38% 30.15 in 10.0 mi NW 16.1 mph 20.7 mph N/A   Clear
3:35 PM 32.0 °F 21.6 °F 9.1 °F 38% 30.15 in 10.0 mi NW 15.0 mph 26.5 mph N/A   Clear
3:55 PM 32.9 °F 21.0 °F 9.5 °F 38% 30.14 in 10.0 mi WNW 20.7 mph 25.3 mph N/A   Clear
4:15 PM 33.1 °F 20.9 °F 9.0 °F 37% 30.14 in 10.0 mi WNW 21.9 mph 26.5 mph N/A   Clear
4:35 PM 32.9 °F 21.3 °F 9.0 °F 37% 30.14 in 10.0 mi NW 19.6 mph 28.8 mph N/A   Clear
4:55 PM 33.1 °F 23.0 °F 8.8 °F 36% 30.14 in 10.0 mi NW 15.0 mph 21.9 mph N/A   Clear
5:15 PM 33.3 °F 22.8 °F 9.7 °F 37% 30.14 in 10.0 mi WNW 16.1 mph 21.9 mph N/A   Clear
5:35 PM 33.1 °F 21.9 °F 9.0 °F 37% 30.14 in 10.0 mi NW 18.4 mph 27.6 mph N/A   Clear
6:15 PM 32.9 °F 22.4 °F 9.5 °F 38% 30.14 in 10.0 mi NNW 16.1 mph 20.7 mph N/A   Clear
6:35 PM 32.0 °F 22.5 °F 9.9 °F 40% 30.14 in 10.0 mi NW 12.7 mph 19.6 mph N/A   Clear
6:55 PM 32.0 °F 21.2 °F 9.9 °F 40% 30.14 in 10.0 mi NW 16.1 mph 20.7 mph N/A   Clear
7:15 PM 31.6 °F 23.1 °F 9.9 °F 40% 30.14 in 10.0 mi NW 10.4 mph - N/A   Clear
7:35 PM 30.4 °F 21.5 °F 10.8 °F 44% 30.14 in 10.0 mi NW 10.4 mph - N/A   Clear
7:55 PM 30.0 °F 21.7 °F 10.6 °F 44% 30.15 in 10.0 mi NW 9.2 mph 16.1 mph N/A   Clear
8:15 PM 29.1 °F 20.0 °F 10.8 °F 46% 30.15 in 10.0 mi WNW 10.4 mph 16.1 mph N/A   Clear
8:35 PM 29.1 °F 18.4 °F 10.8 °F 46% 30.15 in 10.0 mi NW 13.8 mph - N/A   Clear
8:55 PM 28.9 °F 19.2 °F 10.4 °F 46% 30.16 in 10.0 mi NW 11.5 mph - N/A   Clear
9:15 PM 28.8 °F 20.2 °F 10.8 °F 47% 30.16 in 10.0 mi WNW 9.2 mph - N/A   Clear
9:35 PM 28.6 °F 18.7 °F 10.8 °F 47% 30.17 in 10.0 mi WNW 11.5 mph 19.6 mph N/A   Clear
9:55 PM 27.9 °F 17.3 °F 10.4 °F 48% 30.17 in 10.0 mi WNW 12.7 mph - N/A   Clear
10:15 PM 27.7 °F 18.8 °F 10.4 °F 48% 30.18 in 10.0 mi WNW 9.2 mph - N/A   Clear
10:35 PM 27.3 °F 17.1 °F 10.2 °F 49% 30.18 in 10.0 mi WNW 11.5 mph - N/A   Clear
10:55 PM 26.6 °F 17.5 °F 10.4 °F 51% 30.18 in 10.0 mi WNW 9.2 mph - N/A   Clear
11:15 PM 26.6 °F 18.2 °F 10.6 °F 51% 30.19 in 10.0 mi WNW 8.1 mph - N/A   Clear
11:35 PM 25.7 °F 15.7 °F 10.8 °F 53% 30.19 in 10.0 mi WNW 10.4 mph - N/A   Clear
11:55 PM 25.5 °F 16.2 °F 10.4 °F 53% 30.19 in 10.0 mi WNW 9.2 mph - N/A   Clear